GW3182 Weather Reports


time (UTC)temp
F
wind
direction
speed
knots
gust
knots
rain 1hr
in
rain 24hr
in
rain mn
in
humidity
%
barometer
mb
20260504214504 71 219 5.2 7.0 0.00 0.00 0.00 26 1006.3
20260504214001 70 244 2.6 2.6 0.00 0.00 0.00 26 1006.0
20260504213457 70 182 4.3 6.1 0.00 0.00 0.00 27 1006.3
20260504212955 71 214 5.2 7.8 0.00 0.00 0.00 26 1006.3
20260504212450 70 193 0.9 0.9 0.00 0.00 0.00 28 1006.0
20260504211948 68 246 1.7 2.6 0.00 0.00 0.00 28 1006.0
20260504211444 69 188 3.5 4.3 0.00 0.00 0.00 27 1006.3
20260504210942 69 189 2.6 4.3 0.00 0.00 0.00 28 1006.3
20260504210439 69 280 4.3 5.2 0.00 0.00 0.00 28 1006.3
20260504205936 70 244 2.6 2.6 0.00 0.00 0.00 28 1006.3
20260504205433 70 208 3.5 4.3 0.00 0.00 0.00 27 1006.3
20260504204931 71 218 5.2 6.1 0.00 0.00 0.00 26 1006.3
20260504204429 69 233 4.3 6.1 0.00 0.00 0.00 27 1006.3
20260504203928 69 226 3.5 4.3 0.00 0.00 0.00 29 1006.3
20260504203425 70 280 6.1 8.7 0.00 0.00 0.00 27 1007.1
20260504202921 69 188 2.6 2.6 0.00 0.00 0.00 28 1006.6
20260504202418 68 268 7.0 8.7 0.00 0.00 0.00 29 1006.3
20260504201915 69 231 3.5 4.3 0.00 0.00 0.00 29 1006.3
20260504201412 67 205 3.5 6.1 0.00 0.00 0.00 30 1006.6
20260504200910 68 286 6.1 7.8 0.00 0.00 0.00 29 1006.6
20260504200406 68 255 3.5 5.2 0.00 0.00 0.00 30 1007.1
20260504195903 68 240 6.1 7.0 0.00 0.00 0.00 29 1007.1
20260504195358 68 229 8.7 9.6 0.00 0.00 0.00 30 1007.1
20260504194855 69 204 6.1 7.0 0.00 0.00 0.00 30 1007.1
20260504194351 69 234 1.7 4.3 0.00 0.00 0.00 29 1007.1
20260504193847 68 318 3.5 4.3 0.00 0.00 0.00 32 1007.4
20260504193344 68 235 2.6 4.3 0.00 0.00 0.00 31 1007.4
20260504192843 69 303 7.0 12.2 0.00 0.00 0.00 31 1007.1
20260504192341 69 230 3.5 5.2 0.00 0.00 0.00 29 1007.4
20260504191839 67 338 2.6 4.3 0.00 0.00 0.00 33 1007.4
20260504191337 69 256 7.8 7.8 0.00 0.00 0.00 30 1007.4
20260504190832 68 237 7.0 11.3 0.00 0.00 0.00 30 1007.8
20260504190328 68 208 5.2 6.1 0.00 0.00 0.00 30 1007.4
20260504185825 69 255 4.3 6.1 0.00 0.00 0.00 30 1007.4
20260504185322 68 286 5.2 6.1 0.00 0.00 0.00 30 1007.8
20260504184818 68 346 1.7 4.3 0.00 0.00 0.00 32 1007.4
20260504184314 67 220 2.6 4.3 0.00 0.00 0.00 33 1007.8
20260504183809 67 175 10.4 15.6 0.00 0.00 0.00 32 1007.8
20260504183307 67 230 3.5 4.3 0.00 0.00 0.00 33 1007.8
20260504182805 65 223 0.9 0.9 0.00 0.00 0.00 37 1007.8
20260504182304 66 220 4.3 6.1 0.00 0.00 0.00 35 1008.1
20260504181759 66 264 7.0 13.0 0.00 0.00 0.00 34 1007.8
20260504181256 66 238 6.1 8.7 0.00 0.00 0.00 34 1007.8
20260504180755 66 203 4.3 5.2 0.00 0.00 0.00 34 1007.8
20260504180254 68 237 7.0 8.7 0.00 0.00 0.00 33 1007.8
20260504175751 67 277 3.5 4.3 0.00 0.00 0.00 34 1008.1
20260504175248 66 245 7.8 12.2 0.00 0.00 0.00 34 1007.8
20260504174745 67 205 3.5 4.3 0.00 0.00 0.00 34 1008.1
20260504174243 66 195 5.2 7.0 0.00 0.00 0.00 35 1008.1
20260504173739 67 275 6.1 7.8 0.00 0.00 0.00 34 1008.1
20260504173237 66 205 7.0 13.9 0.00 0.00 0.00 35 1008.1
20260504172733 65 316 6.1 7.8 0.00 0.00 0.00 37 1007.8
20260504172230 65 241 4.3 7.0 0.00 0.00 0.00 36 1008.1
20260504171726 65 154 7.8 11.3 0.00 0.00 0.00 36 1008.1
20260504171223 65 235 7.0 8.7 0.00 0.00 0.00 37 1008.1
20260504170720 65 205 2.6 4.3 0.00 0.00 0.00 37 1008.1
20260504170217 64 221 2.6 4.3 0.00 0.00 0.00 39 1008.1
20260504160136 61 222 5.2 6.1 0.00 0.00 0.00 40 1008.9
20260504151103 58 178 6.1 7.0 0.00 0.00 0.00 42 1009.2
20260504150601 57 236 4.3 7.0 0.00 0.00 0.00 43 1009.2
20260504141020 55 217 4.3 11.3 0.00 0.00 0.00 45 1009.9
20260504140517 55 255 5.2 6.1 0.00 0.00 0.00 43 1009.5
20260504130442 50 203 2.6 4.3 0.00 0.00 0.00 50 1009.9
20260504110328 44 194 2.6 4.3 0.00 0.00 0.00 56 1010.2
20260504100246 42 282 2.6 2.6 0.00 0.00 0.00 59 1009.9
20260504081639 44 198 2.6 1.7 0.00 0.00 0.00 54 1010.2
20260504081135 45 237 2.6 2.6 0.00 0.00 0.00 54 1010.2
20260504080632 45 197 2.6 2.6 0.00 0.00 0.00 53 1010.2
20260504080128 45 209 4.3 6.1 0.00 0.00 0.00 52 1010.2
20260504050445 47 248 2.6 2.6 0.00 0.00 0.00 47 1010.6
20260504045942 47 254 4.3 5.2 0.00 0.00 0.00 47 1010.6
20260504045437 47 248 2.6 4.3 0.00 0.00 0.00 47 1010.6
20260504044934 47 230 2.6 2.6 0.00 0.00 0.00 46 1010.6
20260504044432 47 242 3.5 4.3 0.00 0.00 0.00 46 1010.6
20260504043929 48 205 2.6 2.6 0.00 0.00 0.00 46 1010.6
20260504043426 48 200 2.6 2.6 0.00 0.00 0.00 46 1010.6
20260504042923 48 197 2.6 1.7 0.00 0.00 0.00 46 1010.2
20260504042420 48 222 1.7 1.7 0.00 0.00 0.00 46 1010.6
20260504041916 48 232 3.5 4.3 0.00 0.00 0.00 45 1010.6
20260504041412 49 221 3.5 4.3 0.00 0.00 0.00 44 1010.6
20260504040909 49 222 2.6 2.6 0.00 0.00 0.00 44 1010.6
20260504040407 49 227 3.5 5.2 0.00 0.00 0.00 44 1010.6
20260504035902 49 239 2.6 2.6 0.00 0.00 0.00 43 1010.6
20260504035400 49 259 2.6 2.6 0.00 0.00 0.00 43 1010.6
20260504034856 49 225 2.6 2.6 0.00 0.00 0.00 43 1010.6
20260504034354 49 232 2.6 1.7 0.00 0.00 0.00 43 1011.0
20260504033850 49 230 2.6 1.7 0.00 0.00 0.00 44 1010.6
20260504033349 49 239 2.6 2.6 0.00 0.00 0.00 44 1010.6
20260504032845 49 230 2.6 2.6 0.00 0.00 0.00 44 1010.6
20260504032342 49 215 2.6 2.6 0.00 0.00 0.00 43 1010.6
20260504031839 49 229 1.7 1.7 0.00 0.00 0.00 44 1011.0
20260504031336 49 245 3.5 2.6 0.00 0.00 0.00 43 1011.3
20260504030832 49 233 3.5 5.2 0.00 0.00 0.00 44 1011.3
20260504030330 50 242 1.7 1.7 0.00 0.00 0.00 43 1011.0
20260504025826 49 257 4.3 5.2 0.00 0.00 0.00 43 1010.6
20260504025323 49 239 2.6 2.6 0.00 0.00 0.00 44 1011.0
20260504024820 49 232 3.5 5.2 0.00 0.00 0.00 44 1011.0
20260504024316 49 225 3.5 4.3 0.00 0.00 0.00 44 1011.0
20260504023813 49 269 3.5 2.6 0.00 0.00 0.00 44 1011.0
20260504023309 49 252 3.5 4.3 0.00 0.00 0.00 45 1011.3
20260504022805 49 236 2.6 2.6 0.00 0.00 0.00 45 1011.0
20260504022304 49 231 1.7 1.7 0.00 0.00 0.00 45 1011.3
20260504021758 49 234 3.5 2.6 0.00 0.00 0.00 45 1011.0
20260504021256 49 251 2.6 2.6 0.00 0.00 0.00 47 1011.0
20260504020753 49 217 2.6 4.3 0.00 0.00 0.00 46 1011.0
20260504020249 49 252 2.6 1.7 0.00 0.00 0.00 46 1011.3
20260504015745 49 260 4.3 5.2 0.00 0.00 0.00 46 1011.3
20260504015242 49 252 4.3 6.1 0.00 0.00 0.00 47 1011.3
20260504014738 49 280 4.3 7.0 0.00 0.00 0.00 47 1011.3
20260504014235 49 256 2.6 2.6 0.00 0.00 0.00 47 1011.3
20260504013732 48 230 4.3 5.2 0.00 0.00 0.00 48 1011.7
20260504013230 49 233 5.2 6.1 0.00 0.00 0.00 50 1011.3
20260504012726 50 247 8.7 13.0 0.00 0.00 0.00 45 1011.3
20260504012224 50 341 4.3 5.2 0.00 0.00 0.00 43 1011.0
20260504011721 50 274 2.6 4.3 0.00 0.00 0.00 44 1011.0
20260504011218 50 231 7.0 7.8 0.00 0.00 0.00 43 1011.0
20260504010714 49 244 5.2 7.0 0.00 0.00 0.00 46 1011.0
20260504010210 49 231 4.3 5.2 0.00 0.00 0.00 47 1011.0
20260504005706 49 241 5.2 8.7 0.00 0.00 0.00 46 1011.0
20260504005203 49 265 3.5 5.2 0.00 0.00 0.00 46 1011.0
20260504004702 49 320 7.8 9.6 0.00 0.00 0.00 46 1011.0
20260504004158 49 326 4.3 5.2 0.00 0.00 0.00 45 1011.0
20260504003654 49 255 12.2 13.9 0.00 0.00 0.00 45 1010.6
20260504003151 49 270 4.3 6.1 0.00 0.00 0.00 46 1011.0
20260504002648 49 239 2.6 4.3 0.00 0.00 0.00 46 1010.6
20260504002145 49 253 3.5 5.2 0.00 0.00 0.00 45 1010.6
20260504001643 50 290 2.6 1.7 0.00 0.00 0.00 46 1011.0
20260504001139 50 319 6.1 7.8 0.00 0.00 0.00 45 1011.0
20260504000636 50 321 5.2 8.7 0.00 0.00 0.00 45 1010.6
20260504000134 50 285 5.2 7.8 0.00 0.00 0.00 45 1010.6
20260503235631 50 328 7.8 8.7 0.00 0.00 0.00 44 1010.6
20260503235128 50 345 7.8 13.0 0.00 0.00 0.00 44 1010.6
20260503234626 51 238 7.0 12.2 0.00 0.00 0.00 42 1010.6
20260503234124 51 309 3.5 4.3 0.00 0.00 0.00 41 1010.2
20260503233621 51 295 4.3 7.0 0.00 0.00 0.00 40 1010.2
20260503233116 51 322 3.5 2.6 0.00 0.00 0.00 41 1010.2
20260503232613 51 267 1.7 1.7 0.00 0.00 0.00 41 1010.2
20260503232110 51 292 3.5 7.8 0.00 0.00 0.00 40 1009.9
20260503231608 51 277 4.3 5.2 0.00 0.00 0.00 41 1009.9
20260503231104 51 246 2.6 4.3 0.00 0.00 0.00 40 1009.9
20260503230601 52 276 2.6 2.6 0.00 0.00 0.00 39 1009.9
20260503230053 53 238 3.5 4.3 0.00 0.00 0.00 38 1009.9
20260503225550 53 225 4.3 6.1 0.00 0.00 0.00 38 1009.9
20260503225045 52 256 0.9 0.9 0.00 0.00 0.00 41 1009.9
20260503224543 51 282 0.0 0.9 0.00 0.00 0.00 41 1009.9
20260503224041 51 229 1.7 1.7 0.00 0.00 0.00 41 1009.9
20260503223539 51 277 2.6 2.6 0.00 0.00 0.00 41 1009.9
20260503223034 51 278 2.6 2.6 0.00 0.00 0.00 41 1009.9
20260503222532 51 240 1.7 1.7 0.00 0.00 0.00 42 1009.9
20260503222030 51 314 2.6 2.6 0.00 0.00 0.00 42 1009.9
20260503221528 51 318 1.7 1.7 0.00 0.00 0.00 40 1010.2
20260503221025 51 305 2.6 1.7 0.00 0.00 0.00 40 1009.9
20260503220520 51 230 2.6 2.6 0.00 0.00 0.00 41 1010.2
20260503220017 51 312 2.6 2.6 0.00 0.00 0.00 40 1009.9
20260503215515 51 276 1.7 1.7 0.00 0.00 0.00 40 1010.2
20260503215012 52 267 4.3 5.2 0.00 0.00 0.00 39 1009.9